DW5057 Weather Reports


Display with metric or nautical units.
time (UTC)temp
F
wind
direction
speed
MPH
gust
MPH
rain 1hr
in
rain 24hr
in
rain mn
in
humidity
%
barometer
mb
20260906215017 74 52 1.0 3.0 0.00 0.13 0.13 70 1015.2
20260906214017 74 47 1.0 3.0 0.00 0.13 0.13 71 1015.1
20260906213018 74 281 1.0 3.0 0.00 0.13 0.13 73 1015.1
20260906212019 74 64 0.0 2.0 0.00 0.13 0.13 73 1015.1
20260906211018 73 31 1.0 3.0 0.00 0.13 0.13 74 1015.1
20260906210018 73 50 0.0 2.0 0.00 0.13 0.13 77 1015.0
20260906205038 73 53 0.0 2.0 0.04 0.13 0.13 79 1015.0
20260906204039 72 55 0.0 3.0 0.13 0.13 0.13 84 1014.9
20260906203018 72 111 0.0 2.0 0.13 0.13 0.13 85 1014.9
20260906202019 72 221 0.0 0.0 0.13 0.13 0.13 85 1015.0
20260906201018 71 0.0 0.0 0.13 0.13 0.13 84 1015.0
20260906200016 72 29 0.0 2.0 0.13 0.13 0.13 81 1015.1
20260906195016 75 37 1.0 4.0 0.10 0.10 0.10 74 1015.2
20260906194016 77 47 2.0 6.0 0.00 0.00 0.00 63 1014.9
20260906193017 78 42 2.0 6.0 0.00 0.00 0.00 62 1014.8
20260906192017 79 57 1.0 3.0 0.00 0.00 0.00 58 1014.8
20260906191017 79 41 1.0 3.0 0.00 0.00 0.00 58 1014.9
20260906190017 79 45 1.0 6.0 0.00 0.00 0.00 57 1014.9
20260906185037 79 33 1.0 4.0 0.00 0.00 0.00 58 1015.0
20260906184018 78 55 2.0 5.0 0.00 0.00 0.00 61 1015.1
20260906183018 79 42 1.0 5.0 0.00 0.00 0.00 62 1015.2
20260906182017 83 54 1.0 5.0 0.00 0.00 0.00 57 1015.2
20260906181018 85 124 0.0 2.0 0.00 0.00 0.00 48 1015.0
20260906180018 85 84 0.0 2.0 0.00 0.00 0.00 48 1014.9
20260906175018 85 60 1.0 3.0 0.00 0.00 0.00 49 1014.9
20260906174018 85 104 0.0 2.0 0.00 0.00 0.00 49 1014.9
20260906173018 85 52 1.0 4.0 0.00 0.00 0.00 49 1014.8
20260906172018 85 264 1.0 3.0 0.00 0.00 0.00 48 1015.0
20260906171019 84 213 1.0 3.0 0.00 0.00 0.00 51 1015.0
20260906170016 84 82 1.0 3.0 0.00 0.00 0.00 51 1015.1
20260906165016 84 197 0.0 2.0 0.00 0.00 0.00 52 1015.0
20260906164016 84 21 1.0 5.0 0.00 0.00 0.00 51 1014.9
20260906163016 82 356 0.0 2.0 0.00 0.00 0.00 55 1014.9
20260906162016 81 98 0.0 3.0 0.00 0.00 0.00 57 1015.0
20260906161017 82 119 0.0 3.0 0.00 0.00 0.00 56 1015.0
20260906160016 83 47 1.0 3.0 0.00 0.00 0.00 55 1014.9
20260906155057 83 43 2.0 6.0 0.00 0.00 0.00 54 1015.0
20260906154017 83 39 1.0 4.0 0.00 0.00 0.00 55 1015.0
20260906153017 83 58 1.0 4.0 0.00 0.00 0.00 49 1014.9
20260906152037 81 106 1.0 2.0 0.00 0.00 0.00 54 1015.0
20260906151038 81 34 1.0 4.0 0.00 0.00 0.00 53 1014.9
20260906150018 81 40 1.0 4.0 0.00 0.00 0.00 54 1014.8
20260906145018 80 45 1.0 5.0 0.00 0.00 0.00 56 1014.8
20260906144018 80 46 1.0 7.0 0.00 0.00 0.00 55 1014.8
20260906143018 79 58 1.0 5.0 0.00 0.00 0.00 57 1014.8
20260906142019 78 40 1.0 4.0 0.00 0.00 0.00 59 1014.6
20260906141016 78 39 2.0 5.0 0.00 0.00 0.00 59 1014.5
20260906140016 78 42 2.0 6.0 0.00 0.00 0.00 61 1014.5
20260906135016 78 51 1.0 5.0 0.00 0.00 0.00 62 1014.5
20260906134016 77 37 2.0 5.0 0.00 0.00 0.00 62 1014.4
20260906133017 76 42 1.0 5.0 0.00 0.00 0.00 65 1014.4
20260906132037 75 48 2.0 5.0 0.00 0.00 0.00 67 1014.3
20260906131017 73 57 1.0 3.0 0.00 0.00 0.00 71 1014.3
20260906130017 72 31 1.0 3.0 0.00 0.00 0.00 75 1014.2
20260906125017 71 50 1.0 3.0 0.00 0.00 0.00 77 1014.2
20260906124038 70 61 1.0 3.0 0.00 0.00 0.00 78 1014.2
20260906123018 70 89 1.0 2.0 0.00 0.00 0.00 80 1014.2
20260906122518 69 34 1.0 2.0 0.00 0.00 0.00 81 1014.2
20260906121517 69 30 1.0 2.0 0.00 0.00 0.00 82 1014.1
20260906120558 68 88 1.0 2.0 0.00 0.00 0.00 83 1014.1
20260906115518 67 35 1.0 2.0 0.00 0.00 0.00 83 1014.0
20260906114518 67 43 1.0 3.0 0.00 0.00 0.00 83 1014.0
20260906113538 66 39 0.0 2.0 0.00 0.00 0.00 83 1013.8
20260906112519 66 20 1.0 3.0 0.00 0.00 0.00 84 1013.6
20260906111518 66 21 0.0 2.0 0.00 0.00 0.00 85 1013.5
20260906110539 65 30 0.0 1.0 0.00 0.00 0.00 85 1013.4
20260906105519 65 29 0.0 1.0 0.00 0.00 0.00 85 1013.3
20260906104519 65 0.0 0.0 0.00 0.00 0.00 85 1013.0
20260906103519 65 338 0.0 1.0 0.00 0.00 0.00 86 1012.8
20260906102519 65 0.0 0.0 0.00 0.00 0.00 86 1012.7
20260906101520 65 33 0.0 2.0 0.00 0.00 0.00 86 1012.6
20260906100520 65 0.0 0.0 0.00 0.00 0.00 85 1012.5
20260906095520 66 0.0 0.0 0.00 0.00 0.00 84 1012.4
20260906094520 66 0.0 0.0 0.00 0.00 0.00 83 1012.2
20260906093540 66 353 0.0 1.0 0.00 0.00 0.00 82 1012.2
20260906092541 66 355 1.0 2.0 0.00 0.00 0.00 83 1012.1
20260906091520 66 0.0 0.0 0.00 0.00 0.00 84 1012.2
20260906090521 66 0.0 0.0 0.00 0.00 0.00 84 1012.1
20260906085520 66 355 0.0 1.0 0.00 0.00 0.00 84 1012.0
20260906084521 66 357 0.0 2.0 0.00 0.00 0.00 85 1011.9
20260906083521 66 0.0 0.0 0.00 0.00 0.00 87 1011.8
20260906082541 67 0.0 0.0 0.00 0.00 0.00 88 1011.8
20260906081521 67 0.0 0.0 0.00 0.00 0.00 88 1011.8
20260906080516 67 215 0.0 1.0 0.00 0.00 0.00 88 1011.8
20260906075536 67 311 0.0 1.0 0.00 0.00 0.00 89 1011.7
20260906074517 67 300 0.0 1.0 0.00 0.00 0.00 90 1011.8
20260906073537 67 6 0.0 1.0 0.00 0.00 0.00 90 1011.7
20260906072516 67 0.0 0.0 0.00 0.00 0.00 90 1011.6
20260906071517 67 296 0.0 1.0 0.00 0.00 0.00 90 1011.6
20260906070517 67 223 0.0 1.0 0.00 0.00 0.00 90 1011.6
20260906065517 67 0.0 0.0 0.00 0.00 0.00 90 1011.5
20260906064517 67 232 0.0 1.0 0.00 0.00 0.00 89 1011.5
20260906063518 67 0.0 0.0 0.00 0.00 0.00 89 1011.6
20260906062538 67 0.0 0.0 0.00 0.02 0.00 89 1011.6
20260906061538 67 0.0 0.0 0.00 0.02 0.00 89 1011.7
20260906060518 67 0.0 0.0 0.00 0.03 0.00 89 1011.7
20260906055518 67 0.0 0.0 0.00 0.04 0.00 89 1011.8
20260906054519 68 0.0 0.0 0.00 0.05 0.00 89 1011.8
20260906053518 68 0.0 0.0 0.00 0.08 0.00 88 1012.0
20260906052536 68 233 0.0 0.0 0.00 0.13 0.00 88 1012.0
20260906051516 68 230 0.0 1.0 0.00 0.16 0.00 88 1012.1
20260906050536 68 94 0.0 1.0 0.00 0.16 0.00 88 1012.1
20260906045536 68 241 0.0 0.0 0.00 0.16 0.00 88 1012.1
20260906044516 68 230 0.0 0.0 0.00 0.16 0.00 87 1012.2
20260906043516 68 226 0.0 0.0 0.00 0.16 0.00 87 1012.3
20260906042537 69 0.0 0.0 0.00 0.16 0.00 87 1012.2
20260906041537 69 224 0.0 1.0 0.00 0.16 0.00 87 1012.4
20260906040517 69 230 0.0 1.0 0.00 0.16 0.00 86 1012.5
20260906035517 69 264 0.0 0.0 0.00 0.16 0.16 86 1012.5
20260906034517 69 219 0.0 1.0 0.00 0.16 0.16 85 1012.5
20260906033517 69 221 0.0 1.0 0.00 0.16 0.16 85 1012.4
20260906032518 70 0.0 0.0 0.00 0.16 0.16 84 1012.4
20260906031518 70 0.0 0.0 0.00 0.16 0.16 84 1012.4
20260906030518 70 0.0 0.0 0.00 0.16 0.16 83 1012.4
20260906025538 70 0.0 0.0 0.00 0.16 0.16 82 1012.5
20260906024518 70 241 0.0 0.0 0.00 0.16 0.16 82 1012.4
20260906023519 71 0.0 0.0 0.00 0.16 0.16 81 1012.4
20260906022536 71 262 0.0 0.0 0.00 0.16 0.16 81 1012.3
20260906021516 71 0.0 0.0 0.00 0.16 0.16 78 1012.3
20260906020536 72 0.0 0.0 0.00 0.16 0.16 76 1012.1
20260906015516 72 0.0 0.0 0.00 0.16 0.16 74 1012.1
20260906014516 73 197 0.0 1.0 0.00 0.16 0.16 73 1011.9
20260906013537 73 0.0 0.0 0.00 0.16 0.16 73 1011.9
20260906012537 73 0.0 0.0 0.00 0.16 0.16 72 1011.8
20260906011517 73 31 0.0 2.0 0.00 0.16 0.16 70 1011.8
20260906010518 73 32 0.0 1.0 0.00 0.16 0.16 67 1011.8
20260906005517 72 0.0 0.0 0.00 0.16 0.16 73 1011.8
20260906004517 73 0.0 0.0 0.00 0.16 0.16 72 1011.6
20260906003518 73 0.0 0.0 0.00 0.16 0.16 69 1011.5
20260906002518 74 0.0 0.0 0.00 0.16 0.16 67 1011.3
20260906001518 75 0.0 0.0 0.00 0.16 0.16 65 1011.2
20260906000518 75 0.0 0.0 0.00 0.16 0.16 63 1011.2
20260905235518 76 209 0.0 1.0 0.00 0.16 0.16 62 1011.1
20260905234518 76 41 0.0 1.0 0.00 0.16 0.16 60 1011.1
20260905233518 76 19 0.0 2.0 0.00 0.16 0.16 60 1011.0
20260905232516 77 0.0 0.0 0.00 0.16 0.16 60 1010.9
20260905231516 77 0.0 0.0 0.00 0.16 0.16 60 1010.9
20260905230516 78 0.0 0.0 0.00 0.16 0.16 59 1010.8
20260905225516 78 0.0 0.0 0.00 0.16 0.16 57 1010.8
20260905224537 78 9 0.0 1.0 0.00 0.16 0.16 58 1010.7
20260905223516 78 351 0.0 2.0 0.00 0.16 0.16 61 1010.6
20260905222517 79 87 0.0 1.0 0.00 0.16 0.16 62 1010.6
20260905221517 79 206 0.0 2.0 0.00 0.16 0.16 63 1010.5
20260905220537 79 128 0.0 1.0 0.00 0.16 0.16 62 1010.5